Birmingham, United Kingdom

6:13 AM BST on April 28, 2017 (GMT +0100)
Birmingham

Weather History for EGBB - November, 2012

Change the Weather History Date:

Tuesday, November 6, 2012

  Actual Average Record
Temperature  
Mean Temperature 38 °F -  
Max Temperature 48 °F 48 °F 60 °F (2015)
Min Temperature 28 °F 36 °F 28 °F (2012)
Degree Days  
Heating Degree Days 27    
Moisture  
Dew Point 40 °F    
Average Humidity 91    
Maximum Humidity 100    
Minimum Humidity 81    
Precipitation  
Precipitation 0.00 in 0.08 in - ()
Sea Level Pressure  
Sea Level Pressure 30.10 in    
Wind  
Wind Speed 4 mph ()    
Max Wind Speed 10 mph    
Max Gust Speed -    
Visibility 5.6 miles    
Events Rain    
Averages and records for this station are not official NWS values.
T = Trace of Precipitation, MM = Missing Value Source: Averaged Metar Reports

Daily Weather History Graph

Daily Weather History Graph

Search for Another Location

Airport or City:

Trip Planner

Search our weather history database for the weather conditions in past years. The results will help you decide how hot, cold, wet, or windy it might be!

Date:

Astronomy

Nov. 06, 2012 Rise Set
Actual Time 7:12 AM GMT 4:27 PM GMT
Civil Twilight 6:36 AM GMT 5:04 PM GMT
Nautical Twilight 5:55 AM GMT 5:45 PM GMT
Astronomical Twilight 5:15 AM GMT 6:24 PM GMT
Moon 10:59 PM GMT (11/6) 12:52 PM GMT (11/6)
Length of Visible Light 10h 28m
Length of Day
9h 14m
Waning Gibbous, 55% of the Moon is Illuminated
Nov 6
Waning Gibbous
Nov 7
Last Quarter
Nov 13
New
Nov 20
First Quarter
Nov 28
Full

Hourly Weather History & Observations

Time (GMT) Temp. Windchill Dew Point Humidity Pressure Visibility Wind Dir Wind Speed Gust Speed Precip Events Conditions
12:20 AM 30.2 °F - 28.4 °F 93% 30.01 in 2.5 mi Calm Calm - N/A   Mist
12:50 AM 28.4 °F - 28.4 °F 100% 30.04 in 2.8 mi Variable 2.3 mph - N/A   Mist
1:20 AM 28.4 °F - 28.4 °F 100% 30.04 in 2.8 mi Calm Calm - N/A   Mist
1:50 AM 28.4 °F - 28.4 °F 100% 30.04 in 1.4 mi Calm Calm - N/A   Mist
2:20 AM 28.4 °F 24.6 °F 28.4 °F 100% 30.04 in 1.5 mi SSE 3.5 mph - N/A   Mist
2:50 AM 28.4 °F - 28.4 °F 100% 30.04 in - Calm Calm - N/A   Mist
3:20 AM 30.2 °F - 30.2 °F 100% 30.04 in 4.3 mi Calm Calm - N/A   Unknown
3:50 AM 33.8 °F - 33.8 °F 100% 30.04 in - Calm Calm - N/A   Clear
4:20 AM 33.8 °F - 33.8 °F 100% 30.06 in 5.6 mi Variable 2.3 mph - N/A   Partly Cloudy
4:50 AM 33.8 °F - 33.8 °F 100% 30.06 in 6.2 mi Variable 2.3 mph - N/A   Partly Cloudy
5:20 AM 33.8 °F - 33.8 °F 100% 30.06 in - Variable 2.3 mph - N/A   Clear
5:50 AM 35.6 °F - 33.8 °F 93% 30.06 in - SW 2.3 mph - N/A   Clear
6:20 AM 35.6 °F 32.8 °F 35.6 °F 100% 30.06 in - SW 3.5 mph - N/A   Clear
6:50 AM 37.4 °F 34.9 °F 35.6 °F 93% 30.06 in - Variable 3.5 mph - N/A   Clear
7:20 AM 39.2 °F - 35.6 °F 87% 30.09 in 6.2 mi Variable 2.3 mph - N/A   Partly Cloudy
7:50 AM 39.2 °F 37.0 °F 35.6 °F 87% 30.09 in - Variable 3.5 mph - N/A   Clear
8:20 AM 39.2 °F 35.9 °F 35.6 °F 87% 30.09 in - West 4.6 mph - N/A   Clear
8:50 AM 41.0 °F 38.0 °F 37.4 °F 87% 30.09 in - West 4.6 mph - N/A   Clear
9:20 AM 42.8 °F 38.6 °F 39.2 °F 87% 30.09 in - West 6.9 mph - N/A   Clear
9:50 AM 42.8 °F 39.3 °F 39.2 °F 87% 30.12 in 6.2 mi WSW 5.8 mph - N/A   Partly Cloudy
10:20 AM 44.6 °F 41.4 °F 39.2 °F 81% 30.12 in 6.2 mi WSW 5.8 mph - N/A   Scattered Clouds
10:50 AM 46.4 °F 42.4 °F 41.0 °F 81% 30.12 in 6.2 mi WSW 8.1 mph - N/A   Mostly Cloudy
11:20 AM 46.4 °F 42.4 °F 41.0 °F 81% 30.09 in 6.2 mi West 8.1 mph - N/A   Partly Cloudy
11:50 AM 46.4 °F 42.4 °F 41.0 °F 81% 30.09 in 6.2 mi West 8.1 mph - N/A   Partly Cloudy
12:20 PM 46.4 °F 42.4 °F 42.8 °F 87% 30.09 in 6.2 mi West 8.1 mph - N/A   Light Drizzle
12:50 PM 46.4 °F 42.9 °F 42.8 °F 87% 30.09 in 6.2 mi WSW 6.9 mph - N/A Rain Light Rain
1:20 PM 46.4 °F 42.9 °F 42.8 °F 87% 30.09 in 6.2 mi WSW 6.9 mph - N/A Rain Light Rain
1:50 PM 48.2 °F - 44.6 °F 87% 30.09 in 6.2 mi West 8.1 mph - N/A   Mostly Cloudy
2:20 PM 48.2 °F - 44.6 °F 87% 30.09 in 6.2 mi West 6.9 mph - N/A   Light Drizzle
2:50 PM 48.2 °F - 46.4 °F 93% 30.09 in 6.2 mi West 6.9 mph - N/A   Light Drizzle
3:20 PM 48.2 °F - 46.4 °F 93% 30.09 in 5.6 mi WNW 10.4 mph - N/A   Drizzle
3:50 PM 48.2 °F - 46.4 °F 93% 30.09 in 6.2 mi West 8.1 mph - N/A   Light Drizzle
4:20 PM 48.2 °F - 46.4 °F 93% 30.12 in 6.2 mi WNW 6.9 mph - N/A   Overcast
4:50 PM 48.2 °F - 44.6 °F 87% 30.12 in 6.2 mi WNW 8.1 mph - N/A   Mostly Cloudy
5:20 PM 48.2 °F - 44.6 °F 87% 30.12 in 6.2 mi WNW 10.4 mph - N/A   Scattered Clouds
5:50 PM 48.2 °F - 44.6 °F 87% 30.12 in - WNW 8.1 mph - N/A   Clear
6:20 PM 48.2 °F - 44.6 °F 87% 30.12 in 6.2 mi West 6.9 mph - N/A   Mostly Cloudy
6:50 PM 48.2 °F - 44.6 °F 87% 30.15 in 6.2 mi West 9.2 mph - N/A   Overcast
7:20 PM 48.2 °F - 44.6 °F 87% 30.15 in 6.2 mi WNW 8.1 mph - N/A   Mostly Cloudy
8:20 PM 48.2 °F - 46.4 °F 93% 30.15 in 6.2 mi WNW 6.9 mph - N/A   Mostly Cloudy
8:50 PM 48.2 °F - 46.4 °F 93% 30.15 in 6.2 mi WNW 6.9 mph - N/A   Mostly Cloudy
9:20 PM 48.2 °F - 46.4 °F 93% 30.15 in 6.2 mi WNW 6.9 mph - N/A   Mostly Cloudy
9:50 PM 48.2 °F - 46.4 °F 93% 30.15 in 6.2 mi WNW 5.8 mph - N/A   Mostly Cloudy
10:20 PM 48.2 °F - 44.6 °F 87% 30.18 in 6.2 mi WNW 5.8 mph - N/A   Mostly Cloudy
10:50 PM 48.2 °F - 44.6 °F 87% 30.18 in 6.2 mi WNW 4.6 mph - N/A   Mostly Cloudy
11:20 PM 46.4 °F 42.9 °F 42.8 °F 87% 30.18 in 6.2 mi WNW 6.9 mph - N/A   Scattered Clouds
11:50 PM 46.4 °F 42.9 °F 42.8 °F 87% 30.18 in 6.2 mi WNW 6.9 mph - N/A   Mostly Cloudy